Miscellaneous Local Product
Issued by NWS Hastings, NE

Home | Current Version | Previous Version | Graphics & Text | Print | Product List | Glossary On
Versions: 1 2 3 4 5 6 7 8 9 10 11 12 13 14 15 16 17 18 19 20 21 22 23 24 25 26 27 28 29 30 31 32 33 34 35 36 37 38 39 40 41 42 43 44 45 46 47 48 49 50
032
AXUS43 KGID 252202
MISGRI

GID CWA HOURLY WEATHER ROUNDUP
NATIONAL WEATHER SERVICE HASTINGS NE
500 PM CDT SUN SEP 25 2016

NOTE: "FAIR" INDICATES FEW OR NO CLOUDS BELOW 12,000 FEET WITH NO
SIGNIFICANT WEATHER AND/OR OBSTRUCTIONS TO VISIBILITY.

...SOUTH CENTRAL NEBRASKA...

CITY           SKY/WX    TMP DP  RH WIND       PRES   REMARKS
GRAND ISLAND   SUNNY     71  31  22 NW21G28   30.19S
HASTINGS       SUNNY     71  33  24 N20G26    30.20F
KEARNEY        SUNNY     72  25  17 NW17G23   30.21R
ORD            SUNNY     69  28  21 NW16      30.19S
YORK           SUNNY     72  36  26 NW17G24   30.17S
AURORA         SUNNY     71  33  25 NW13G21   30.18S
LEXINGTON      SUNNY     71  22  16 NW17G24   30.24S
HOLDREGE       SUNNY     70  23  17 N14G23    30.23S
HEBRON         SUNNY     73  39  29 NW13G21   30.17R

...NEBRASKA PANHANDLE...

CITY           SKY/WX    TMP DP  RH WIND       PRES   REMARKS
CHADRON        SUNNY     65  26  23 NW21G29   30.32F
ALLIANCE       SUNNY     64  32  30 NW16      30.33S
SCOTTSBLUFF    SUNNY     67  36  31 NW16G25   30.35S
SIDNEY         LGT RAIN  65  34  31 N16       30.36S

...WESTERN AND NORTH CENTRAL NEBRASKA...

CITY           SKY/WX    TMP DP  RH WIND       PRES   REMARKS
VALENTINE      SUNNY     66  22  18 NW20G30   30.24S
AINSWORTH      SUNNY     65  31  27 NW24G38   30.23S
ONEILL         SUNNY     68  27  21 NW22G31   30.19S
BROKEN BOW     SUNNY     69  19  15 NW18G32   30.23S
IMPERIAL       SUNNY     70  29  21 NW25G32   30.30S
NORTH PLATTE   LGT RAIN  73  22  14 N12G28    30.26S
MCCOOK         SUNNY     72  21  14 NW23G32   30.26R

...EASTERN NEBRASKA...

CITY           SKY/WX    TMP DP  RH WIND       PRES   REMARKS
NORFOLK        SUNNY     69  35  28 W17G29    30.13S
SO SIOUX CITY  PTSUNNY   70  46  42 NW21G35   30.07F
TEKAMAH        MOSUNNY   71  46  40 NW17G23   30.10F
COLUMBUS       SUNNY     72  36  26 NW16G23   30.15S
ALBION         SUNNY     69  33  26 NW21G26   30.18R
OMAHA EPPLEY   PTSUNNY   69  48  47 NW14      30.11S
OFFUTT AFB     MOSUNNY   69  48  46 NW12G25   30.11S
MILLARD        PTSUNNY   71  47  42 NW14      30.11S
LINCOLN        MOSUNNY   74  44  34 NW21      30.14R
NEBRASKA CITY  MOSUNNY   71  34  26 NW12G18   30.12S
BEATRICE       SUNNY     73  47  39 NW15G23   30.14S
FALLS CITY     CLOUDY    71  52  50 NW12      30.11S

...NORTHERN KANSAS...

CITY           SKY/WX    TMP DP  RH WIND       PRES   REMARKS
GOODLAND       MOSUNNY   70  33  25 N22G29    30.31S
HILL CITY      SUNNY     74  35  24 N20G28    30.24S
NORTON         CLEAR     73  16  11 NW20G28   30.23S
PHILLIPSBURG   SUNNY     75  28  17 N22       30.22S
SMITH CENTER   SUNNY     73  32  21 N17G24    30.21S
HAYS           SUNNY     75  39  27 N18       30.21F
CONCORDIA      MOSUNNY   74  43  32 NW12G21   30.17S
SALINA         MOSUNNY   73  48  41 NW10      30.18S
TOPEKA         CLOUDY    68  56  65 NW5       30.14R



USA.gov is the U.S. government's official web portal to all federal, state and local government web resources and services.